Regional Weather Roundup
Issued by NWS

Home | Current Version | Previous Version | Text Only | Print | Product List | Glossary On
Versions: 1 2 3 4 5 6 7 8 9 10 11 12 13 14 15 16 17 18 19 20 21 22 23 24 25 26 27 28 29 30 31 32 33 34 35 36 37 38 39 40 41 42 43 44 45 46 47 48 49 50
284
ASUS43 KBIS 291510
RWRND

NORTH DAKOTA REGIONAL WEATHER ROUNDUP
NATIONAL WEATHER SERVICE BISMARCK ND
1000 AM CDT WED MAR 29 2017

NOTE: "FAIR" INDICATES FEW OR NO CLOUDS BELOW 12,000 FEET WITH NO
SIGNIFICANT WEATHER AND/OR OBSTRUCTIONS TO VISIBILITY.


NDZ001>003-009>011-017-291600-
NORTHWEST NORTH DAKOTA

CITY           SKY/WX    TMP DP  RH WIND       PRES   REMARKS
WILLISTON      FAIR      38  38 100 S3        30.04F
MINOT          CLOUDY    46  41  82 S7        30.05F
MINOT AFB      CLOUDY    43  41  93 S6        30.04F
$$

NDZ018>021-031>035-040>046-291600-
SOUTHWEST NORTH DAKOTA

CITY           SKY/WX    TMP DP  RH WIND       PRES   REMARKS
BISMARCK       FAIR      48  41  76 S3        30.12F
DICKINSON      CLOUDY    41  41 100 SW14      30.06S
GARRISON         N/A     42  39  89 S8        30.08F
HETTINGER ARPT PTSUNNY   43  41  93 SW12      30.10F
$$

NDZ004>008-012>016-024-026-027-054-291600-
NORTHEAST NORTH DAKOTA

CITY           SKY/WX    TMP DP  RH WIND       PRES   REMARKS
GRAND FORKS    CLOUDY    42  35  76 S7        30.16S
GRND FRKS AFB  CLOUDY    42  37  84 S5        30.15F
DEVILS LAKE    FAIR      48  38  68 S12       30.12F
$$

NDZ022-023-025-028>030-036>039-047>053-291600-
SOUTHEAST NORTH DAKOTA

CITY           SKY/WX    TMP DP  RH WIND       PRES   REMARKS
FARGO          CLOUDY    46  35  65 SE8       30.17F
JAMESTOWN      FAIR      43  38  82 SW3       30.14F
$$





USA.gov is the U.S. government's official web portal to all federal, state and local government web resources and services.